Location: Newark
(43.0000°N, 1.6781°W)
Time: 06:39:51
(UTC+00:00)

Vanguard 1 - Pass Details

Date: 06 December 2021
Orbit: 652 x 3830 km, 34.2° (Epoch: 16 January)

Event Time Altitude Azimuth Distance (km) Brightness Sun altitude
Rises 23:05:29 0° 233° (SW) 6,734 14.3 -66.9°
Enters shadow 23:08:28 - 230° (SW) 6,220 14.1 -67.2°
Exits shadow 23:49:34 14° 89° (E) 6,164 14.0 -69.5°
Drops below altitude 10° 23:51:11 10° 88° (E) 6,419 14.1 -69.6°
Sets 23:55:39 0° 84° (E) 7,159 14.5 -69.6°
